TimeCET,TemperatureF,Dew PointF,Humidity,Sea Level PressureIn,VisibilityMPH,Wind Direction,Wind SpeedMPH,Gust SpeedMPH,PrecipitationIn,Events,Conditions,WindDirDegrees,DateUTC
12:00 AM,51,47,81,30.30,,,1.2,,,,,,2012-11-14 23:00:00
12:20 AM,46.4,46.4,100,30.27,3.1,Variable,1.2,-,N/A,,Mostly Cloudy,0,2012-11-14 23:20:00
12:50 AM,44.6,44.6,100,30.27,3.7,North,2.3,-,N/A,,Overcast,360,2012-11-14 23:50:00
1:20 AM,46.4,46.4,100,30.27,3.7,North,3.5,-,N/A,,Overcast,350,2012-11-15 00:20:00
1:50 AM,46.4,46.4,100,30.27,3.7,Variable,1.2,-,N/A,,Mostly Cloudy,0,2012-11-15 00:50:00
2:00 AM,51,47,82,30.28,,Calm,Calm,,,,,,2012-11-15 01:00:00
2:20 AM,48.2,46.4,93,30.27,3.7,ESE,1.2,-,N/A,,Overcast,110,2012-11-15 01:20:00
2:50 AM,48.2,46.4,93,30.27,3.7,Variable,1.2,-,N/A,,Overcast,0,2012-11-15 01:50:00
3:00 AM,51,47,82,30.28,,Calm,Calm,,,,,,2012-11-15 02:00:00
3:20 AM,48.2,46.4,93,30.24,3.1,Variable,1.2,-,N/A,,Overcast,0,2012-11-15 02:20:00
3:50 AM,48.2,46.4,93,30.24,3.1,North,2.3,-,N/A,,Overcast,10,2012-11-15 02:50:00
4:20 AM,48.2,46.4,93,30.24,3.7,NNE,3.5,-,N/A,,Overcast,20,2012-11-15 03:20:00
4:50 AM,48.2,46.4,93,30.24,3.7,Variable,1.2,-,N/A,,Overcast,0,2012-11-15 03:50:00
5:00 AM,51,47,81,30.25,,Calm,Calm,,,,,,2012-11-15 04:00:00
5:20 AM,46.4,46.4,100,30.21,-9999.0,South,1.2,-,N/A,,Scattered Clouds,180,2012-11-15 04:20:00
5:50 AM,46.4,46.4,100,30.21,-9999.0,Variable,1.2,-,N/A,,Mist,0,2012-11-15 04:50:00
6:00 AM,49,47,88,30.25,,North,3.5,,,,,0,2012-11-15 05:00:00
6:20 AM,44.6,44.6,100,30.24,3.1,Variable,1.2,-,N/A,,Mist,0,2012-11-15 05:20:00
6:50 AM,44.6,42.8,93,30.24,5.0,Variable,1.2,-,N/A,Fog,Fog,0,2012-11-15 05:50:00
7:20 AM,42.8,42.8,100,30.24,4.3,North,2.3,-,N/A,Fog,Fog,360,2012-11-15 06:20:00
7:50 AM,44.6,42.8,93,30.24,4.3,Variable,2.3,-,N/A,,Mostly Cloudy,0,2012-11-15 06:50:00
8:00 AM,48,42,73,30.27,,North,1.2,,,,,350,2012-11-15 07:00:00
8:20 AM,44.6,42.8,93,30.24,5.0,North,2.3,-,N/A,,Mostly Cloudy,360,2012-11-15 07:20:00
8:50 AM,44.6,44.6,100,30.24,5.0,North,4.6,-,N/A,,Mostly Cloudy,360,2012-11-15 07:50:00
9:00 AM,48,42,74,30.27,,North,2.3,,,,,10,2012-11-15 08:00:00
9:20 AM,44.6,42.8,93,30.24,5.0,North,6.9,-,N/A,,Scattered Clouds,360,2012-11-15 08:20:00
9:50 AM,46.4,42.8,87,30.24,5.0,North,3.5,-,N/A,,Scattered Clouds,360,2012-11-15 08:50:00
10:20 AM,50.0,42.8,76,30.24,5.6,Variable,2.3,-,N/A,,Mostly Cloudy,0,2012-11-15 09:20:00
10:50 AM,50.0,44.6,82,30.24,5.6,Variable,2.3,-,N/A,,Mostly Cloudy,0,2012-11-15 09:50:00
11:20 AM,51.8,44.6,76,30.21,5.6,Variable,2.3,-,N/A,,Mostly Cloudy,0,2012-11-15 10:20:00
11:50 AM,51.8,46.4,82,30.21,5.6,South,3.5,-,N/A,,Mostly Cloudy,180,2012-11-15 10:50:00
12:00 PM,52,47,76,30.22,,South,3.5,,,,,180,2012-11-15 11:00:00
12:20 PM,53.6,46.4,77,30.18,5.6,South,4.6,-,N/A,,Mostly Cloudy,190,2012-11-15 11:20:00
12:50 PM,53.6,44.6,72,30.18,5.6,South,5.8,-,N/A,,Mostly Cloudy,180,2012-11-15 11:50:00
1:20 PM,55.4,42.8,63,30.18,6.2,South,4.6,-,N/A,,Scattered Clouds,170,2012-11-15 12:20:00
1:50 PM,55.4,42.8,63,30.15,6.2,South,5.8,-,N/A,,Scattered Clouds,180,2012-11-15 12:50:00
2:00 PM,53,47,72,30.17,,South,5.8,,,,,190,2012-11-15 13:00:00
2:20 PM,55.4,44.6,67,30.15,6.2,South,6.9,-,N/A,,Partly Cloudy,190,2012-11-15 13:20:00
2:50 PM,55.4,44.6,67,30.15,6.2,SSW,6.9,-,N/A,,Partly Cloudy,200,2012-11-15 13:50:00
3:00 PM,53,46,70,30.15,,South,8.1,,,,,190,2012-11-15 14:00:00
3:20 PM,55.4,44.6,67,30.12,6.2,South,8.1,-,N/A,,Partly Cloudy,190,2012-11-15 14:20:00
3:50 PM,53.6,44.6,72,30.12,6.2,SSW,5.8,-,N/A,,Partly Cloudy,200,2012-11-15 14:50:00
4:20 PM,51.8,44.6,76,30.12,5.6,SSW,6.9,-,N/A,,Partly Cloudy,210,2012-11-15 15:20:00
4:50 PM,51.8,42.8,71,30.15,5.6,SW,5.8,-,N/A,,Partly Cloudy,220,2012-11-15 15:50:00
5:00 PM,52,44,67,30.16,,South,8.1,,,,,190,2012-11-15 16:00:00
5:20 PM,50.0,42.8,76,30.15,5.6,SSW,4.6,-,N/A,,Scattered Clouds,210,2012-11-15 16:20:00
5:50 PM,50.0,44.6,82,30.15,5.6,Variable,3.5,-,N/A,,Scattered Clouds,0,2012-11-15 16:50:00
6:00 PM,52,42,61,30.18,,SSW,3.5,,,,,200,2012-11-15 17:00:00
6:20 PM,50.0,44.6,82,30.15,5.6,Variable,3.5,-,N/A,,Mostly Cloudy,0,2012-11-15 17:20:00
6:50 PM,50.0,42.8,76,30.18,5.6,Variable,2.3,-,N/A,,Mostly Cloudy,0,2012-11-15 17:50:00
7:20 PM,50.0,42.8,76,30.18,5.6,Variable,2.3,-,N/A,,Mostly Cloudy,0,2012-11-15 18:20:00
7:50 PM,50.0,44.6,82,30.18,5.6,Variable,1.2,-,N/A,,Mostly Cloudy,0,2012-11-15 18:50:00
8:00 PM,51,43,65,30.20,,SW,1.2,,,,,230,2012-11-15 19:00:00
8:20 PM,50.0,42.8,76,30.18,5.6,Variable,1.2,-,N/A,,Mostly Cloudy,0,2012-11-15 19:20:00
8:50 PM,50.0,42.8,76,30.18,5.6,Variable,1.2,-,N/A,,Mostly Cloudy,0,2012-11-15 19:50:00
9:00 PM,51,44,68,30.20,,SSE,3.5,,,,,160,2012-11-15 20:00:00
9:20 PM,48.2,44.6,87,30.18,5.6,Variable,2.3,-,N/A,,Mostly Cloudy,0,2012-11-15 20:20:00
9:50 PM,50.0,42.8,76,30.18,5.6,SW,3.5,-,N/A,,Mostly Cloudy,230,2012-11-15 20:50:00
10:20 PM,50.0,42.8,76,30.18,5.0,Variable,1.2,-,N/A,,Overcast,0,2012-11-15 21:20:00
10:50 PM,50.0,42.8,76,30.18,4.3,SW,4.6,-,N/A,,Mostly Cloudy,230,2012-11-15 21:50:00
11:20 PM,50.0,44.6,82,30.18,5.0,Variable,2.3,-,N/A,,Mostly Cloudy,0,2012-11-15 22:20:00
11:50 PM,48.2,44.6,87,30.18,5.6,North,1.2,-,N/A,,Overcast,360,2012-11-15 22:50:00